• MPC Preparation (Info)

  • MPEC 2016-O389: 2013 LY35

    The following Minor Planet Electronic Circular may be linked-to from your own Web pages, but must not otherwise be redistributed electronically.

    A form allowing access to any MPEC is at the bottom of this page.


    Read MPEC 2016-O388 Read MPEC 2016-O390


    M.P.E.C. 2016-O389                               Issued 2016 July 27, 00:24 UT
    
         The Minor Planet Electronic Circulars contain information on unusual
             minor planets and routine data on comets.  They are published
        on behalf of Division F of the International Astronomical Union by the
              Minor Planet Center, Smithsonian Astrophysical Observatory,
                              Cambridge, MA 02138, U.S.A.
    
                 Prepared using the Tamkin Foundation Computer Network
    
                                  MPC@CFA.HARVARD.EDU
                URL https://www.minorplanetcenter.net/    ISSN 1523-6714
    
                                       2013 LY35
    
    Observations:
         K13L35Y  C2010 06 07.39835 15 44 57.155-27 15 14.76         22.3 rLEO389F51
         K13L35Y  C2011 06 07.38716 15 51 06.462-27 26 04.25         21.9 wLEO389F51
         K13L35Y  C2011 06 07.42975 15 51 06.242-27 26 03.46         22.2 wLEO389F51
         K13L35Y  C2012 06 12.35042 15 56 47.758-27 34 04.52         22.2 wLEO389F51
         K13L35Y  C2012 06 12.36437 15 56 47.675-27 34 04.03         22.0 wLEO389F51
         K13L35Y  C2012 06 12.37840 15 56 47.621-27 34 03.85         22.1 wLEO389F51
         K13L35Y  C2012 06 12.39240 15 56 47.525-27 34 03.55         22.2 wLEO389F51
         K13L35Y  C2013 04 16.53412 16 07 44.980-27 54 38.68         22.1 wLEO389F51
         K13L35Y* C2013 06 12.38336 16 03 00.322-27 42 55.67         21.9 wLEO389F51
         K13L35Y  C2013 06 12.40505 16 03 00.202-27 42 55.15         22.3 wLEO389F51
         K13L35Y  C2013 06 30.33578 16 01 37.967-27 37 31.44         22.2 wLEO389F51
         K13L35Y  C2013 06 30.33655 16 01 37.967-27 37 31.05         14.2 wLEO389F51
         K13L35Y  C2013 06 30.34964 16 01 37.916-27 37 30.97         22.4 wLEO389F51
         K13L35Y  C2013 06 30.35041 16 01 37.911-27 37 31.04         21.8 wLEO389F51
         K13L35Y  C2013 06 30.36355 16 01 37.855-27 37 30.64         22.6 wLEO389F51
         K13L35Y  C2013 06 30.36432 16 01 37.846-27 37 30.60         22.3 wLEO389F51
    
    Observer details:
    F51 Pan-STARRS 1, Haleakala.  Observers B. Gibson, T. Goggia, N. Primak,
        A. Schultz, M. Willman.  Measurers Y.-T. Chen, W. Fraser, M. Holman,
        P. Lacerda, M. Lackner, H.-W. Lin, M. Payne, P. Protopapas, K. Chambers,
        S. Chastel, L. Denneau, H. Flewelling, M. Huber, R. Jedicke, E. Lilly,
        E. Magnier, M. Micheli, P. Veres, R. Wainscoat, C. Waters, R. Weryk.
        1.8-m Ritchey-Chretien + CCD.
    
    Orbital elements:
    2013 LY35
    Epoch 2016 July 31.0 TT = JDT 2457600.5                 MPC
    M 305.98740              (2000.0)            P               Q
    n   0.00351382     Peri.   13.37127     +0.61237848     +0.77844360
    a  42.8498831      Node   294.56689     -0.73856376     +0.50110547
    e   0.0560601      Incl.    8.72156     -0.28198612     +0.37804613
    P 280              H    5.8           G   0.15           U   3
    Residuals in seconds of arc
    100607 F51  0.1+  0.1+    120612 F51  0.1-  0.1+    130630 F51  0.0   0.0
    110607 F51  0.1-  0.1-    130416 F51  0.0   0.1+    130630 F51  0.0   0.1-
    110607 F51  0.1-  0.1-    130612 F51  0.1+  0.1-    130630 F51  0.0   0.0
    120612 F51  0.2+  0.1-    130612 F51  0.0   0.1+    130630 F51  0.1-  0.1+
    120612 F51  0.0   0.2+    130630 F51  0.1-  0.3-
    120612 F51  0.2+  0.1+    130630 F51  0.0   0.1+
    
    Ephemeris:
    2013 LY35                a,e,i = 42.85, 0.06, 9                  q = 40.448
    Date    TT    R. A. (2000) Decl.     Delta      r     Elong.  Phase     V
    2016 06 27    16 20 34.6 -27 59 14  40.6364 41.5353   151.8     0.7    22.1
    ...
    2016 07 12    16 19 32.7 -27 55 09  40.7773 41.5334   137.6     0.9    22.1
    ...
    2016 07 20    16 19 06.4 -27 53 01  40.8727 41.5324   129.9     1.1    22.1
    ...
    2016 07 26    16 18 50.2 -27 51 30  40.9521 41.5316   124.2     1.2    22.1
    2016 07 27    16 18 47.8 -27 51 15  40.9660 41.5315   123.3     1.2    22.1
    2016 07 28    16 18 45.5 -27 51 00  40.9800 41.5313   122.3     1.2    22.1
    ...
    2016 08 03    16 18 33.8 -27 49 34  41.0670 41.5306   116.6     1.3    22.1
    ...
    2016 08 11    16 18 23.6 -27 47 49  41.1902 41.5296   108.9     1.3    22.1
    ...
    2016 08 26    16 18 22.4 -27 45 06  41.4352 41.5277    94.6     1.4    22.2
    
    A. U. Tomatic                (C) Copyright 2016 MPC           M.P.E.C. 2016-O389
    

    Read MPEC 2016-O388 Read MPEC 2016-O390


    MPEC number:

    Enter an MPEC number in one of the following forms:

    • 1997-B01 (the full form)
    • J97B01 (the packed version of the full form)
    • B01 (the abbreviated form)